[[{"header":{"parameterUnit":"m.s-1","parameterCategory":1,"la1":30.2991,"la2":30.254,"lo1":-89.0895,"lo2":-89.0444,"dy":0.0017,"dx":0.0017,"nx":28,"ny":28,"refTime":"2024-05-20T09:00:00:Z","depth":0,"parameterNumber":2,"parameterNumberName":"U-component_of_WINDS"},"data":[0,0,0,0,0,0,0,0,0,0,0,0,0,0,0,0,0,0,0,0,0,0,0,0,0,0,0,0,0,0,0,0,0,0,0,0,0,0,0,0,0,0,0,0,0,0,0,0,0,0,0,0,0,0,0,0,0,0,-2.3487,-2.3487,0,-2.3482,-2.3482,-2.3482,-2.3428,-2.3427,-2.3425,-2.3424,-2.342,-2.3421,-2.3422,0,0,0,0,0,0,0,0,0,0,0,0,0,-2.3449,-2.345,-2.3487,-2.3487,-2.3487,-2.3482,-2.3482,-2.3482,-2.3428,-2.3427,-2.3425,-2.3424,-2.342,-2.3421,-2.3422,0,0,0,0,0,0,0,0,0,0,0,0,0,-2.3457,-2.345,-2.3487,-2.3459,-2.3457,-2.3482,-2.3482,-2.3482,-2.3429,-2.3427,-2.3425,-2.3423,-2.3419,-2.3421,-2.3422,-2.3474,0,0,-2.3428,-2.3429,0,0,0,0,0,0,0,0,-2.3457,-2.3458,-2.3463,-2.3461,-2.3459,-2.3454,-2.3467,-2.348,-2.3429,-2.3439,-2.3424,-2.3422,-2.3433,-2.3433,-2.3437,-2.3474,-2.3474,-2.3428,-2.3429,-2.343,-2.343,0,0,0,0,0,0,0,-2.3456,-2.3458,-2.3485,-2.3464,-2.3461,-2.3447,-2.3446,-2.3469,-2.3448,-2.3438,-2.3434,-2.3435,-2.3431,-2.3435,-2.3436,-2.3474,-2.3428,-2.3429,-2.343,-2.3431,-2.3552,-2.3554,0,0,0,0,0,0,-2.3459,-2.3458,-2.3485,-2.3485,-2.3453,-2.345,-2.3448,-2.3457,-2.3447,-2.3444,-2.3436,-2.3432,-2.3433,-2.3435,-2.3436,-2.3495,-2.343,-2.3431,-2.3432,-2.355,-2.3553,-2.3555,0,0,0,0,0,0,-2.3459,-2.3462,-2.3485,-2.3471,-2.3472,-2.3452,-2.3463,-2.3458,-2.3463,-2.3446,-2.3442,-2.3445,-2.3432,-2.3434,-2.3465,-2.3494,-2.3432,-2.3434,-2.3547,-2.3551,-2.3554,-2.3614,0,0,0,0,0,0,-2.3458,-2.3462,-2.3482,-2.3471,-2.3473,-2.3514,-2.3465,-2.346,-2.3466,-2.346,-2.3453,-2.3449,-2.343,-2.3463,-2.3467,-2.3495,-2.3435,-2.3545,-2.3549,-2.3553,-2.3609,-2.3619,-2.3627,0,0,0,0,0,-2.3457,-2.3499,-2.3483,-2.3487,-2.3497,-2.3516,-2.3517,-2.3495,-2.3468,-2.3487,-2.3477,-2.345,-2.3491,-2.3466,-2.347,-2.35,-2.3543,-2.3548,-2.3552,-2.3605,-2.3617,-2.3627,0,0,0,0,0,0,-2.3513,-2.3497,-2.3479,-2.3519,-2.352,-2.3507,-2.353,-2.3508,-2.3515,-2.351,-2.3482,-2.348,-2.3516,-2.3511,-2.3484,-2.3549,-2.3512,-2.3518,-2.3551,-2.3562,-2.3571,-2.357,-2.3436,0,0,0,0,0,-2.3531,-2.3547,-2.3532,-2.3569,-2.357,-2.3551,-2.3558,-2.3541,-2.354,-2.3539,-2.3531,-2.3531,-2.3544,-2.3553,-2.3564,-2.3609,-2.3606,-2.3632,-2.3641,-2.3648,-2.3653,-2.3676,-2.3687,-2.3571,-2.3571,-2.3571,0,0,-2.3566,-2.356,-2.3572,-2.3581,-2.3579,-2.3596,-2.3551,-2.3572,-2.3585,-2.3542,-2.3571,-2.3565,-2.3563,-2.3602,-2.3618,-2.3599,-2.3685,-2.3654,-2.366,-2.3661,-2.3682,-2.3693,-2.3703,-2.3574,-2.3574,-2.3573,0,0,-2.364,-2.3637,-2.3667,-2.3666,-2.3664,-2.365,-2.3658,-2.3649,-2.3643,-2.3671,-2.364,-2.3655,-2.3678,-2.3678,-2.3681,-2.3755,-2.373,-2.3759,-2.3806,-2.3828,-2.3837,-2.3845,-2.3871,-2.3881,-2.3765,-2.3765,-2.3765,0,-2.3685,-2.371,-2.3686,-2.3708,-2.3713,-2.3676,-2.3706,-2.3706,-2.3708,-2.3712,-2.369,-2.3718,-2.3714,-2.3752,-2.377,-2.3774,-2.3781,-2.3759,-2.3838,-2.3846,-2.3853,-2.3877,-2.3887,-2.3768,-2.3768,-2.3768,-2.3767,0,-2.3765,-2.3783,-2.3807,-2.3809,-2.3817,-2.3843,-2.3823,-2.3833,-2.3816,-2.3805,-2.3834,-2.3828,-2.3837,-2.3845,-2.3828,-2.388,-2.3868,-2.3843,-2.3805,-2.3868,-2.389,-2.3899,-2.3773,-2.3772,-2.3771,-2.377,0,0,-2.3873,-2.3861,-2.3871,-2.3871,-2.3866,-2.3879,-2.3904,-2.3913,-2.3922,-2.3924,-2.3944,-2.3965,-2.3941,-2.3945,-2.3927,-2.3948,-2.4006,-2.392,-2.3919,-2.3935,-2.4062,-2.408,-2.4091,-2.399,-2.3991,-2.3993,-2.4062,0,-2.3943,-2.3984,-2.3963,-2.4007,-2.4023,-2.3988,-2.401,-2.4009,-2.4,-2.4012,-2.4002,-2.4016,-2.3985,-2.3987,-2.4005,-2.3995,-2.4031,-2.399,-2.4007,-2.4008,-2.4007,-2.4103,-2.4122,-2.4187,-2.407,-2.4072,-2.4073,0,-2.403,-2.4036,-2.4082,-2.4073,-2.4079,-2.4099,-2.4105,-2.4117,-2.4116,-2.4107,-2.4111,-2.4089,-2.4113,-2.4076,-2.4108,-2.4081,-2.4087,-2.4083,-2.4085,-2.4085,-2.4043,-2.4104,-2.4207,-2.4217,-2.4086,-2.4085,-2.4084,0,-2.4104,-2.4123,-2.4152,-2.4154,-2.4145,-2.4159,-2.4156,-2.4153,-2.4159,-2.4165,-2.4168,-2.4177,-2.4181,-2.4189,-2.4169,-2.4144,-2.4204,-2.4165,-2.4197,-2.4198,-2.421,-2.4209,-2.4315,-2.4216,-2.4216,-2.4216,-2.4216,0,-2.4183,-2.4212,-2.4185,-2.4203,-2.4234,-2.421,-2.4242,-2.4235,-2.4232,-2.4248,-2.4219,-2.4235,-2.4209,-2.4223,-2.4208,-2.4236,-2.4239,-2.4233,-2.4228,-2.4234,-2.4235,-2.4237,-2.4232,-2.4219,-2.4218,-2.4217,-2.4217,0,-2.427,-2.4253,-2.4282,-2.4272,-2.427,-2.4293,-2.4284,-2.43,-2.4289,-2.431,-2.4313,-2.4296,-2.431,-2.4292,-2.4304,-2.4294,-2.4332,-2.4322,-2.4333,-2.4329,-2.4362,-2.4358,-2.4471,-2.4484,-2.4379,-2.438,-2.4381,0,-2.4321,-2.4343,-2.4334,-2.4343,-2.4341,-2.4356,-2.4362,-2.4339,-2.4347,-2.4347,-2.4363,-2.4375,-2.4382,-2.4407,-2.4395,-2.4404,-2.4393,-2.4432,-2.4394,-2.44,-2.4392,-2.4391,-2.4392,-2.4439,-2.444,-2.4442,-2.4442,0,-2.4414,-2.4405,-2.4415,-2.4422,-2.443,-2.4435,-2.4438,-2.4446,-2.4422,-2.4433,-2.4447,-2.4453,-2.4466,-2.4477,-2.4484,-2.448,-2.4457,-2.4455,-2.4462,-2.4468,-2.4473,-2.447,-2.4352,-2.4452,-2.4451,-2.445,-2.445,-2.4449,-2.4484,-2.4501,-2.4497,-2.4509,-2.4509,-2.4512,-2.4526,-2.4517,-2.4528,-2.4536,-2.4523,-2.454,-2.4538,-2.4544,-2.4543,-2.4557,-2.454,-2.4551,-2.4554,-2.4557,-2.4561,-2.4472,-2.4558,-2.4558,-2.4557,-2.4557,-2.4557,0,-2.4574,-2.457,-2.4581,-2.4586,-2.4595,-2.4573,-2.4575,-2.4584,-2.46,-2.46,-2.4608,-2.4624,-2.4635,-2.4625,-2.4634,-2.4647,-2.4637,-2.465,-2.4648,-2.4648,-2.4576,-2.4568,-2.4658,-2.4658,-2.4658,-2.4658,-2.4658,-2.4658,-2.4622,-2.4649,-2.4639,-2.4666,-2.4662,-2.4679,-2.4682,-2.4684,-2.4684,-2.4703,-2.4712,-2.4705,-2.4701,-2.471,-2.4719,-2.4716,-2.472,-2.4737,-2.473,-2.4663,-2.4653,-2.4643,-2.4635,-2.4738,-2.4738,-2.48,-2.48,-2.4801]},{"header":{"parameterUnit":"m.s-1","parameterCategory":1,"la1":30.2991,"la2":30.254,"lo1":-89.0895,"lo2":-89.0444,"dy":0.0017,"dx":0.0017,"nx":28,"ny":28,"refTime":"2024-05-20T09:00:00:Z","depth":0,"parameterNumber":3,"parameterNumberName":"V-component_of_WINDS"},"data":[0,0,0,0,0,0,0,0,0,0,0,0,0,0,0,0,0,0,0,0,0,0,0,0,0,0,0,0,0,0,0,0,0,0,0,0,0,0,0,0,0,0,0,0,0,0,0,0,0,0,0,0,0,0,0,0,0,0,0.6164,0.6164,0,0.61,0.6099,0.6099,0.6041,0.604,0.6039,0.6039,0.5971,0.597,0.5969,0,0,0,0,0,0,0,0,0,0,0,0,0,0.6236,0.6235,0.6164,0.6164,0.6163,0.61,0.6099,0.6098,0.6041,0.604,0.6039,0.6038,0.5971,0.597,0.5969,0,0,0,0,0,0,0,0,0,0,0,0,0,0.6192,0.6235,0.6165,0.6127,0.6123,0.61,0.6099,0.6098,0.6041,0.604,0.6039,0.6038,0.5972,0.597,0.5968,0.5978,0,0,0.5963,0.5962,0,0,0,0,0,0,0,0,0.6194,0.6189,0.6133,0.6129,0.6125,0.6077,0.61,0.6058,0.6041,0.6072,0.6039,0.6038,0.6007,0.6002,0.5993,0.5975,0.5972,0.5963,0.5962,0.5961,0.5961,0,0,0,0,0,0,0,0.6197,0.6192,0.6139,0.6132,0.6127,0.6112,0.6105,0.6092,0.6046,0.6069,0.6065,0.6058,0.6005,0.5994,0.599,0.5971,0.5963,0.5961,0.596,0.596,0.5959,0.596,0,0,0,0,0,0,0.6207,0.6195,0.6141,0.6137,0.6158,0.6112,0.6104,0.6094,0.6046,0.6038,0.6059,0.6056,0.5998,0.5993,0.5988,0.5997,0.5961,0.5959,0.5958,0.5958,0.5959,0.596,0,0,0,0,0,0,0.6208,0.6202,0.6143,0.6165,0.6156,0.6112,0.6101,0.6093,0.6083,0.6038,0.603,0.6057,0.5997,0.599,0.5981,0.5994,0.5959,0.5957,0.5957,0.5958,0.596,0.6014,0,0,0,0,0,0,0.6211,0.6203,0.6207,0.6165,0.6155,0.6139,0.6102,0.6092,0.608,0.6075,0.6034,0.6026,0.5996,0.5984,0.598,0.5991,0.5956,0.5955,0.5958,0.5959,0.6011,0.6018,0.6023,0,0,0,0,0,0.6213,0.6224,0.6207,0.6201,0.6158,0.6139,0.6133,0.6098,0.6081,0.6084,0.6056,0.6028,0.5993,0.5984,0.5978,0.5989,0.5955,0.5957,0.5959,0.6009,0.6016,0.6023,0,0,0,0,0,0,0.6267,0.6218,0.6199,0.6196,0.6173,0.613,0.6132,0.6107,0.6088,0.6084,0.604,0.6031,0.6028,0.6007,0.5998,0.5996,0.597,0.5971,0.601,0.6017,0.6022,0.6027,0.5954,0,0,0,0,0,0.6279,0.6268,0.6225,0.6227,0.6216,0.6177,0.6167,0.6142,0.6115,0.6105,0.6076,0.6051,0.6034,0.6024,0.6006,0.6008,0.5999,0.6013,0.6019,0.6024,0.6025,0.6026,0.6032,0.5968,0.5968,0.5968,0,0,0.6302,0.6274,0.627,0.6237,0.6216,0.6205,0.6168,0.6158,0.615,0.6103,0.6093,0.6071,0.604,0.6037,0.6034,0.602,0.6041,0.6027,0.6031,0.603,0.6029,0.6035,0.604,0.597,0.5969,0.5969,0,0,0.634,0.6318,0.6317,0.6297,0.6266,0.624,0.624,0.6201,0.6185,0.6175,0.614,0.6129,0.6101,0.6081,0.6067,0.6099,0.6073,0.6095,0.6125,0.6126,0.6131,0.6135,0.6148,0.6152,0.6096,0.6097,0.6097,0,0.6373,0.6357,0.632,0.6313,0.63,0.6258,0.6257,0.6239,0.6204,0.6196,0.618,0.6146,0.6122,0.6114,0.6122,0.6112,0.6111,0.6099,0.6134,0.6137,0.6141,0.6152,0.6157,0.6099,0.6099,0.6099,0.6099,0,0.6399,0.6388,0.6392,0.636,0.6347,0.6343,0.6306,0.6297,0.6274,0.625,0.624,0.621,0.6186,0.6183,0.6159,0.6171,0.6164,0.6142,0.6115,0.615,0.616,0.6164,0.6104,0.6103,0.6102,0.6101,0,0,0.6468,0.6417,0.6419,0.6405,0.6368,0.6359,0.6353,0.6331,0.6325,0.6302,0.6296,0.6275,0.6255,0.6239,0.6213,0.6214,0.6242,0.6191,0.619,0.6202,0.6255,0.6272,0.6278,0.6225,0.6225,0.6226,0.6258,0,0.6501,0.6489,0.6456,0.6455,0.6445,0.6405,0.64,0.6378,0.6355,0.6343,0.6317,0.6303,0.6277,0.6267,0.6266,0.6239,0.6252,0.6236,0.6219,0.6219,0.6228,0.6283,0.63,0.6332,0.6261,0.6262,0.6262,0,0.6536,0.6518,0.6515,0.648,0.6475,0.6471,0.6449,0.6438,0.6411,0.6394,0.6378,0.6349,0.6341,0.6317,0.6305,0.6295,0.6286,0.6272,0.6273,0.627,0.6243,0.6282,0.6341,0.6346,0.6268,0.6267,0.6267,0,0.6588,0.6562,0.6557,0.6546,0.6505,0.6503,0.6486,0.6458,0.6448,0.6428,0.642,0.64,0.6388,0.6373,0.634,0.6325,0.6333,0.6305,0.6319,0.632,0.6322,0.6322,0.6382,0.6316,0.6316,0.6316,0.6316,0,0.6627,0.6628,0.658,0.6577,0.6577,0.654,0.654,0.6519,0.6495,0.6487,0.6451,0.6445,0.6401,0.639,0.6364,0.6359,0.6354,0.6341,0.6334,0.6344,0.6346,0.6338,0.6335,0.6317,0.6317,0.6316,0.6316,0,0.6685,0.6653,0.6646,0.6608,0.6598,0.66,0.6567,0.6563,0.6539,0.653,0.6525,0.6487,0.6472,0.6437,0.6413,0.6395,0.6397,0.6384,0.6407,0.6402,0.6418,0.6418,0.6475,0.6481,0.6411,0.6412,0.6412,0,0.6712,0.6712,0.6675,0.6668,0.6652,0.6641,0.663,0.6593,0.6583,0.6554,0.6554,0.6536,0.652,0.6498,0.6467,0.6448,0.6435,0.6456,0.6432,0.6443,0.6436,0.6437,0.6437,0.6462,0.6463,0.6464,0.6464,0,0.6765,0.6749,0.6735,0.6717,0.6705,0.6688,0.6669,0.6665,0.6624,0.6615,0.6599,0.6587,0.6563,0.6546,0.6523,0.6504,0.6478,0.6472,0.6475,0.6485,0.6499,0.6492,0.6422,0.6471,0.647,0.647,0.6469,0.6469,0.6808,0.6806,0.6781,0.6767,0.6749,0.6732,0.6727,0.6703,0.669,0.6668,0.6647,0.6634,0.6608,0.6574,0.6558,0.6547,0.6533,0.6537,0.6537,0.6539,0.6544,0.65,0.6543,0.6542,0.6542,0.6542,0.6542,0,0.6859,0.6841,0.6829,0.6804,0.6793,0.677,0.6748,0.6741,0.673,0.6709,0.6694,0.6677,0.6661,0.663,0.6611,0.6608,0.6596,0.6605,0.6605,0.6601,0.6557,0.6557,0.6615,0.6615,0.6615,0.6615,0.6615,0.6615,0.6885,0.6881,0.6863,0.685,0.6832,0.682,0.6809,0.6794,0.6777,0.676,0.6747,0.6727,0.6701,0.6681,0.6665,0.6656,0.6651,0.6664,0.6652,0.6611,0.6604,0.6597,0.6597,0.6663,0.6663,0.6697,0.6697,0.6697]}]]